MPEC 2004-U29 : 2004 UH1

The following Minor Planet Electronic Circular may be linked-to from your own Web pages, but must not otherwise be redistributed electronically.


Read MPEC 2004-U28 Read MPEC 2004-U30


M.P.E.C. 2004-U29                                Issued 2004 Oct. 23, 15:53 UT

     The Minor Planet Electronic Circulars contain information on unusual
         minor planets and routine data on comets.  They are published
   on behalf of Commission 20 of the International Astronomical Union by the
          Minor Planet Center, Smithsonian Astrophysical Observatory,
                          Cambridge, MA 02138, U.S.A.

                  Supported in part by the Brinson Foundation
             Prepared using the Tamkin Foundation Computer Network

                              MPC@CFA.HARVARD.EDU
          URL http://cfa-www.harvard.edu/iau/mpc.html  ISSN 1523-6714

                                   2004 UH1

Observations:
     K04U01H*tC2004 10 23.18251 03 05 00.49 +18 27 05.5          20.2 V EU029691
     K04U01H tC2004 10 23.21494 03 04 47.74 +18 41 07.7          19.2 V EU029691
     K04U01H tC2004 10 23.24373 03 04 34.57 +18 54 01.1          19.2 V EU029691
     K04U01H tC2004 10 23.32632 03 03 48.52 +19 33 10.3          19.1 V EU029291
     K04U01H tC2004 10 23.33224 03 03 44.80 +19 36 06.4          19.2 V EU029291
     K04U01H tC2004 10 23.33812 03 03 41.09 +19 39 02.9          19.5 V EU029291
     K04U01H tC2004 10 23.40991 03 02 53.62 +20 16 21.3          19.0 V EU029291
     K04U01H tC2004 10 23.41584 03 02 49.54 +20 19 35.8          19.0 V EU029291
     K04U01H tC2004 10 23.42190 03 02 45.39 +20 22 54.3          19.0 V EU029291
     K04U01H  C2004 10 23.49713 03 01 52.45 +21 05 14.4          18.2 R EU029H06
     K04U01H  C2004 10 23.50015 03 01 50.49 +21 06 59.2          18.1 R EU029H06
     K04U01H  C2004 10 23.50317 03 01 48.55 +21 08 49.3          17.7 R EU029H06

Observer details:
291 LPL/Spacewatch II.  Observer T. H. Bressi.  1.8-m f/2.7 reflector + CCD.
691 Steward Observatory, Kitt Peak.  Observers M. T. Read, S. A. Megan.
    Measurer M. T. Read.  0.9-m f/3 reflector + CCD.
H06 New Mexico Skies Observatory.  Observer R. Hutsebaut.  0.25-m reflector
    + CCD.

Orbital elements:
2004 UH1
Epoch 2004 Oct. 22.0 TT = JDT 2453300.5                 MPC
M 284.93965              (2000.0)            P               Q
n   1.04873847     Peri.  120.02406     -0.86575031     -0.49902471
a   0.9594549      Node    30.08836     +0.42902888     -0.77919197
e   0.4035761      Incl.    4.35720     +0.25770257     -0.37925480
P   0.94           H   28.1           G   0.15
From 12 observations 2004 Oct. 23-23.

Ephemeris:
2004 UH1                 a,e,i = 0.96, 0.40, 4                   q = 0.5722
Date    TT    R. A. (2000) Decl.     Delta      r     Elong.  Phase     V
2004 10 22.0  03 06.95   +13 53.7    0.019    1.013   160.4    19.3    20.5
2004 10 22.5  03 06.19   +15 16.2    0.016    1.010   160.9    18.9    20.1
2004 10 23.0  03 04.97   +17 24.8    0.012    1.006   161.2    18.6    19.5
2004 10 23.5  03 02.72   +21 12.4    0.0088   1.003   160.7    19.1    18.8
2004 10 24.0  02 57.29   +29 34.8    0.0055   1.000   157.0    22.8    17.9
2004 10 24.5  02 25.70   +58 01.8    0.0027   0.996   133.6    46.3    17.0
2004 10 25.0  15 41.36   +41 38.9    0.0027   0.993    58.7   121.1    20.2
2004 10 25.5  15 21.96   +13 59.0    0.0056   0.989    33.1   146.7    24.7
2004 10 26.0  15 17.48   +05 46.6    0.0089   0.986    26.1   153.7    27.0
2004 10 26.5  15 15.47   +02 02.0    0.012    0.983    22.9   156.8    28.5
2004 10 27.0  15 14.33   -00 05.5    0.016    0.979    21.1   158.6    29.5

Timothy B. Spahr             (C) Copyright 2004 MPC           M.P.E.C. 2004-U29

Read MPEC 2004-U28 Read MPEC 2004-U30


Our Web policy. Index to the CBAT/MPC/ICQ pages.

MPC